When you browse on this site, cookies collect data to enhance your experience and personalize the content and advertising you see.
Visit our Privacy Policy to learn more. By continuing to use the site, you agree to this use of cookies and data.
  • en Suisse
  • Liste des pays
  • À 7 jours
  • Température de l'eau
  • Carte météo
  • Widgets météo
  • user-avatar
    Se connecter

    Météo par heure à Pontypridd

    Ce jour, 3 Avril, Vendredi

    Heure Température Précipitation Vent Pression Humidité
    00:00 +5°C° 0 mm 2 m/s 752 mmHg 94%
    01:00 +5°C° 0 mm 2 m/s 752 mmHg 93%
    02:00 +5°C° 0 mm 2 m/s 752 mmHg 93%
    03:00 +5°C° 0 mm 2 m/s 752 mmHg 92%
    04:00 +4°C° 0 mm 2 m/s 752 mmHg 93%
    05:00 +4°C° 0 mm 2 m/s 752 mmHg 93%
    06:00 +3°C° 0 mm 2 m/s 752 mmHg 93%
    07:00 +5°C° 0 mm 2 m/s 752 mmHg 85%
    08:00 +7°C° 0 mm 2 m/s 752 mmHg 77%
    09:00 +8°C° 0 mm 2 m/s 752 mmHg 70%
    10:00 +9°C° 0 mm 3 m/s 753 mmHg 70%
    11:00 +8°C° 0 mm 4 m/s 753 mmHg 70%
    12:00 +8°C° 0 mm 4 m/s 753 mmHg 70%
    13:00 +10°C° 0 mm 4 m/s 753 mmHg 70%
    14:00 +10°C° 0 mm 4 m/s 753 mmHg 70%
    15:00 +10°C° 0 mm 4 m/s 753 mmHg 71%
    16:00 +10°C° 0 mm 4 m/s 753 mmHg 75%
    17:00 +9°C° 0 mm 3 m/s 753 mmHg 79%
    18:00 +8°C° 0 mm 2 m/s 752 mmHg 84%
    19:00 +7°C° 0 mm 2 m/s 753 mmHg 86%
    20:00 +6°C° 0 mm 2 m/s 753 mmHg 89%
    21:00 +5°C° 0 mm 1 m/s 753 mmHg 92%
    22:00 +5°C° 0 mm 1 m/s 753 mmHg 92%
    23:00 +5°C° 0 mm 1 m/s 753 mmHg 93%

    Demain, 4 Avril, Samedi

    Heure Température Précipitation Vent Pression Humidité
    00:00 +5°C° 0 mm 1 m/s 754 mmHg 93%
    01:00 +5°C° 0 mm 1 m/s 753 mmHg 93%
    02:00 +5°C° 0 mm 1 m/s 753 mmHg 93%
    03:00 +4°C° 0 mm 2 m/s 753 mmHg 93%
    04:00 +4°C° 0 mm 2 m/s 753 mmHg 94%
    05:00 +3°C° 0 mm 2 m/s 753 mmHg 95%
    06:00 +3°C° 0 mm 2 m/s 753 mmHg 95%
    07:00 +4°C° 0 mm 3 m/s 753 mmHg 92%
    08:00 +6°C° 0 mm 4 m/s 753 mmHg 88%
    09:00 +7°C° 0 mm 5 m/s 753 mmHg 84%
    10:00 +8°C° 0 mm 5 m/s 753 mmHg 80%
    11:00 +9°C° 0 mm 6 m/s 753 mmHg 76%
    12:00 +10°C° 0 mm 7 m/s 753 mmHg 72%
    13:00 +11°C° 0 mm 7 m/s 752 mmHg 71%
    14:00 +11°C° 0 mm 7 m/s 752 mmHg 70%
    15:00 +11°C° 0 mm 7 m/s 752 mmHg 69%
    16:00 +10°C° 0 mm 6 m/s 752 mmHg 73%
    17:00 +10°C° 0 mm 6 m/s 751 mmHg 77%
    18:00 +9°C° 0 mm 5 m/s 751 mmHg 81%
    19:00 +8°C° 0 mm 5 m/s 751 mmHg 85%
    20:00 +6°C° 0 mm 5 m/s 751 mmHg 90%
    21:00 +5°C° 0 mm 4 m/s 751 mmHg 94%
    22:00 +5°C° 0 mm 4 m/s 751 mmHg 94%
    23:00 +5°C° 0 mm 5 m/s 750 mmHg 94%

    Après-demain, 5 Avril, Dimanche

    Heure Température Précipitation Vent Pression Humidité
    00:00 +5°C° 0 mm 5 m/s 750 mmHg 94%
    01:00 +5°C° 0 mm 5 m/s 749 mmHg 94%
    02:00 +5°C° 0 mm 5 m/s 749 mmHg 94%
    03:00 +6°C° 0 mm 5 m/s 748 mmHg 93%
    04:00 +6°C° 0 mm 5 m/s 748 mmHg 93%
    05:00 +5°C° 0 mm 5 m/s 747 mmHg 94%
    06:00 +5°C° 0 mm 5 m/s 747 mmHg 94%
    07:00 +7°C° 0 mm 6 m/s 747 mmHg 90%
    08:00 +8°C° 0 mm 6 m/s 746 mmHg 86%
    09:00 +10°C° 0 mm 7 m/s 746 mmHg 82%
    10:00 +11°C° 0 mm 8 m/s 746 mmHg 80%
    11:00 +12°C° 0 mm 8 m/s 745 mmHg 78%
    12:00 +13°C° 0 mm 9 m/s 745 mmHg 76%
    13:00 +12°C° 0 mm 9 m/s 745 mmHg 78%
    14:00 +12°C° 0 mm 9 m/s 744 mmHg 80%
    15:00 +12°C° 0 mm 9 m/s 744 mmHg 81%
    16:00 +12°C° 0 mm 8 m/s 744 mmHg 83%
    17:00 +12°C° 0 mm 8 m/s 743 mmHg 84%
    18:00 +12°C° 0 mm 7 m/s 743 mmHg 85%
    19:00 +11°C° 0.4 mm 8 m/s 743 mmHg 88%
    20:00 +11°C° 0.4 mm 8 m/s 743 mmHg 91%
    21:00 +10°C° 0.4 mm 8 m/s 743 mmHg 94%
    22:00 +10°C° 1.1 mm 8 m/s 743 mmHg 95%
    23:00 +10°C° 1.1 mm 7 m/s 743 mmHg 95%

    6 Avril, Lundi

    Heure Température Précipitation Vent Pression Humidité
    00:00 +10°C° 1.1 mm 7 m/s 743 mmHg 96%
    01:00 +9°C° 0.6 mm 6 m/s 743 mmHg 94%
    02:00 +8°C° 0.6 mm 6 m/s 744 mmHg 93%
    03:00 +7°C° 0.6 mm 5 m/s 744 mmHg 92%
    04:00 +7°C° 0 mm 5 m/s 745 mmHg 93%
    05:00 +6°C° 0 mm 5 m/s 746 mmHg 93%
    06:00 +6°C° 0 mm 5 m/s 746 mmHg 94%
    07:00 +7°C° 0.1 mm 6 m/s 748 mmHg 90%
    08:00 +8°C° 0.1 mm 6 m/s 749 mmHg 86%
    09:00 +9°C° 0.1 mm 7 m/s 750 mmHg 82%
    10:00 +9°C° 0 mm 7 m/s 751 mmHg 76%
    11:00 +9°C° 0 mm 7 m/s 752 mmHg 71%
    12:00 +10°C° 0 mm 7 m/s 753 mmHg 65%
    13:00 +10°C° 0 mm 7 m/s 754 mmHg 65%
    14:00 +10°C° 0 mm 7 m/s 755 mmHg 65%
    15:00 +10°C° 0 mm 7 m/s 756 mmHg 64%
    16:00 +9°C° 0 mm 6 m/s 756 mmHg 68%
    17:00 +8°C° 0 mm 5 m/s 757 mmHg 72%
    18:00 +7°C° 0 mm 4 m/s 758 mmHg 76%
    19:00 +6°C° 0 mm 4 m/s 759 mmHg 82%
    20:00 +5°C° 0 mm 3 m/s 760 mmHg 87%
    21:00 +4°C° 0 mm 3 m/s 761 mmHg 92%
    22:00 +5°C° 0 mm 2 m/s 761 mmHg 92%
    23:00 +4°C° 0 mm 2 m/s 762 mmHg 93%

    7 Avril, Mardi

    Heure Température Précipitation Vent Pression Humidité
    00:00 +4°C° 0 mm 2 m/s 762 mmHg 93%
    01:00 +5°C° 0 mm 1 m/s 762 mmHg 93%
    02:00 +5°C° 0 mm 1 m/s 762 mmHg 93%
    03:00 +5°C° 0 mm 1 m/s 763 mmHg 93%
    04:00 +4°C° 0 mm 1 m/s 763 mmHg 93%
    05:00 +4°C° 0 mm 1 m/s 763 mmHg 93%
    06:00 +4°C° 0 mm 1 m/s 764 mmHg 93%
    07:00 +6°C° 0 mm 1 m/s 764 mmHg 86%
    08:00 +7°C° 0 mm 2 m/s 764 mmHg 79%
    09:00 +9°C° 0 mm 2 m/s 764 mmHg 73%
    10:00 +10°C° 0 mm 2 m/s 764 mmHg 68%
    11:00 +11°C° 0 mm 3 m/s 764 mmHg 63%
    12:00 +12°C° 0 mm 3 m/s 764 mmHg 58%
    13:00 +12°C° 0 mm 3 m/s 764 mmHg 59%
    14:00 +12°C° 0 mm 3 m/s 764 mmHg 61%
    15:00 +13°C° 0 mm 3 m/s 763 mmHg 62%
    16:00 +12°C° 0 mm 3 m/s 763 mmHg 67%
    17:00 +11°C° 0 mm 3 m/s 763 mmHg 73%
    18:00 +12°C° 0 mm 2 m/s 763 mmHg 79%
    19:00 +9°C° 0 mm 2 m/s 763 mmHg 82%
    20:00 +8°C° 0 mm 2 m/s 763 mmHg 86%
    21:00 +6°C° 0 mm 2 m/s 763 mmHg 90%
    22:00 +6°C° 0 mm 2 m/s 763 mmHg 90%
    23:00 +6°C° 0 mm 2 m/s 763 mmHg 90%

    8 Avril, Mercredi

    Heure Température Précipitation Vent Pression Humidité
    00:00 +5°C° 0 mm 2 m/s 763 mmHg 90%
    01:00 +5°C° 0 mm 2 m/s 762 mmHg 89%
    02:00 +4°C° 0 mm 3 m/s 762 mmHg 88%
    03:00 +4°C° 0 mm 3 m/s 761 mmHg 87%
    04:00 +4°C° 0 mm 3 m/s 761 mmHg 89%
    05:00 +4°C° 0 mm 3 m/s 761 mmHg 90%
    06:00 +4°C° 0 mm 3 m/s 760 mmHg 91%
    07:00 +7°C° 0 mm 3 m/s 760 mmHg 88%
    08:00 +10°C° 0 mm 4 m/s 760 mmHg 85%
    09:00 +12°C° 0 mm 4 m/s 760 mmHg 82%
    10:00 +13°C° 0 mm 4 m/s 760 mmHg 81%
    11:00 +14°C° 0 mm 5 m/s 759 mmHg 79%
    12:00 +16°C° 0 mm 5 m/s 759 mmHg 78%
    13:00 +16°C° 0 mm 6 m/s 759 mmHg 76%
    14:00 +16°C° 0 mm 6 m/s 758 mmHg 75%
    15:00 +17°C° 0 mm 6 m/s 758 mmHg 74%
    16:00 +16°C° 0 mm 5 m/s 758 mmHg 77%
    17:00 +15°C° 0 mm 5 m/s 757 mmHg 81%
    18:00 +13°C° 0 mm 4 m/s 757 mmHg 85%
    19:00 +12°C° 0 mm 4 m/s 757 mmHg 88%
    20:00 +11°C° 0 mm 3 m/s 757 mmHg 91%
    21:00 +9°C° 0 mm 3 m/s 757 mmHg 94%
    22:00 +9°C° 0 mm 3 m/s 757 mmHg 95%
    23:00 +9°C° 0 mm 3 m/s 757 mmHg 95%
    Voir plus